Linden, NJ

8:33 PM EST on February 05, 2016 (GMT -0500)
Linden

Weather History for KLDJ - March, 2014

Change the Weather History Date:

Wednesday, March 26, 2014

  Actual Average (KEWR) Record (KEWR)
Temperature  
Mean Temperature 32 °F 45 °F  
Max Temperature 37 °F 54 °F 73 °F (1986)
Min Temperature 26 °F 37 °F 19 °F (1960)
Degree Days  
Heating Degree Days 33 20  
Month to date heating degree days 616  
Since 1 July heating degree days 4251  
Cooling Degree Days 0 0  
Month to date cooling degree days 0  
Year to date cooling degree days 0  
Moisture  
Dew Point 10 °F    
Average Humidity 39    
Maximum Humidity 65    
Minimum Humidity 26    
Precipitation  
Precipitation 0.00 in 0.14 in 1.56 in (1978)
Month to date precipitation 3.46  
Year to date precipitation 9.88  
Snow  
Snow 0.00 in 0.10 in 0.70 in (1955)
Month to date snowfall 4.2  
Since 1 July snowfall 27.2  
Snow Depth -    
Sea Level Pressure  
Sea Level Pressure 29.95 in    
Wind  
Wind Speed 14 mph (NNW)    
Max Wind Speed 30 mph    
Max Gust Speed 44 mph    
Visibility 10 miles    
Events Snow    
T = Trace of Precipitation, MM = Missing Value Source: NWS Daily Summary

Daily Weather History Graph

Daily Weather History Graph

Search for Another Location

Airport or City:

Trip Planner

Search our weather history database for the weather conditions in past years. The results will help you decide how hot, cold, wet, or windy it might be!

Date:

Astronomy

Mar. 26, 2014 Rise Set
Actual Time 6:50 AM EDT 7:15 PM EDT
Civil Twilight 6:23 AM EDT 7:42 PM EDT
Nautical Twilight 5:50 AM EDT 8:15 PM EDT
Astronomical Twilight 5:17 AM EDT 8:48 PM EDT
Moon 3:58 AM EDT (3/26) 2:49 PM EDT (3/26)
Length of Visible Light 13h 19m
Length of Day
12h 24m
Waning Crescent, 22% of the Moon is Illuminated
Mar 26
Waning Crescent
Mar 30
New
Apr 7
First Quarter
Apr 15
Full
Apr 22
Last Quarter

Hourly Weather History & Observations

Time (EDT) Temp. Windchill Dew Point Humidity Pressure Visibility Wind Dir Wind Speed Gust Speed Precip Events Conditions
12:15 AM 33.6 °F 25.6 °F 23.0 °F 65% 29.89 in 10.0 mi NE 10.4 mph - N/A Snow Light Snow
12:35 AM 33.8 °F 26.4 °F 22.8 °F 64% 29.88 in 10.0 mi NE 9.2 mph - N/A   Overcast
12:55 AM 33.8 °F 26.4 °F 21.7 °F 61% 29.87 in 10.0 mi NE 9.2 mph - N/A   Overcast
1:15 AM 34.0 °F 28.0 °F 21.2 °F 60% 29.86 in 10.0 mi NE 6.9 mph - N/A   Overcast
1:35 AM 34.3 °F 27.7 °F 20.5 °F 57% 29.85 in 10.0 mi NNE 8.1 mph - N/A   Overcast
1:55 AM 34.3 °F 27.0 °F 19.4 °F 54% 29.85 in 10.0 mi NE 9.2 mph - N/A   Overcast
2:15 AM 34.3 °F 27.0 °F 19.2 °F 54% 29.84 in 10.0 mi North 9.2 mph - N/A   Overcast
2:35 AM 34.3 °F 27.7 °F 19.0 °F 54% 29.84 in 10.0 mi NE 8.1 mph - N/A   Overcast
2:55 AM 34.3 °F 28.4 °F 18.5 °F 52% 29.83 in 10.0 mi NNE 6.9 mph - N/A   Overcast
3:15 AM 34.7 °F 28.1 °F 17.4 °F 49% 29.82 in 10.0 mi NNE 8.1 mph - N/A   Overcast
3:35 AM 34.7 °F 28.1 °F 17.4 °F 49% 29.81 in 10.0 mi NNW 8.1 mph - N/A   Overcast
3:55 AM 34.7 °F 29.6 °F 16.9 °F 48% 29.81 in 10.0 mi North 5.8 mph - N/A   Overcast
4:15 AM 34.7 °F 29.6 °F 16.5 °F 48% 29.80 in 10.0 mi NNW 5.8 mph - N/A   Overcast
4:35 AM 34.3 °F 27.0 °F 16.9 °F 49% 29.80 in 10.0 mi NNW 9.2 mph - N/A   Overcast
4:55 AM 34.2 °F 26.2 °F 16.7 °F 49% 29.79 in 10.0 mi NNW 10.4 mph - N/A   Overcast
5:15 AM 34.0 °F 26.0 °F 16.5 °F 49% 29.79 in 10.0 mi NNW 10.4 mph - N/A   Overcast
5:35 AM 34.2 °F 26.2 °F 15.8 °F 47% 29.78 in 10.0 mi NNW 10.4 mph 16.1 mph N/A   Mostly Cloudy
5:55 AM 34.0 °F 26.0 °F 16.0 °F 48% 29.77 in 10.0 mi NNW 10.4 mph - N/A   Scattered Clouds
6:15 AM 34.2 °F 25.2 °F 15.8 °F 47% 29.78 in 10.0 mi NNW 12.7 mph 17.3 mph N/A   Clear
6:35 AM 34.3 °F 26.5 °F 16.9 °F 49% 29.79 in 10.0 mi NNW 10.4 mph - N/A   Clear
6:55 AM 34.3 °F 25.9 °F 19.2 °F 54% 29.80 in 10.0 mi North 11.5 mph 20.7 mph N/A   Clear
7:15 AM 34.2 °F 23.3 °F 20.3 °F 57% 29.81 in 10.0 mi NNW 18.4 mph 23.0 mph N/A   Clear
7:35 AM 34.2 °F 24.8 °F 19.9 °F 56% 29.82 in 10.0 mi NNW 13.8 mph 26.5 mph N/A   Clear
7:55 AM 34.2 °F 25.2 °F 19.2 °F 54% 29.83 in 10.0 mi NNW 12.7 mph 26.5 mph N/A   Clear
8:15 AM 34.0 °F 22.1 °F 19.0 °F 54% 29.84 in 10.0 mi NNW 21.9 mph 28.8 mph N/A   Clear
8:35 AM 33.1 °F 21.5 °F 16.0 °F 50% 29.85 in 10.0 mi NNW 19.6 mph 29.9 mph N/A   Clear
8:55 AM 32.2 °F 19.7 °F 12.4 °F 44% 29.86 in 7.0 mi NNW 21.9 mph 32.2 mph N/A   Clear
9:15 AM 32.9 °F 19.6 °F 10.9 °F 40% 29.88 in 10.0 mi NNW 26.5 mph 32.2 mph N/A   Clear
9:35 AM 33.1 °F 20.6 °F 10.4 °F 39% 29.89 in 10.0 mi North 23.0 mph 34.5 mph N/A   Clear
9:55 AM 34.2 °F 21.3 °F 10.2 °F 37% 29.90 in 10.0 mi North 26.5 mph 35.7 mph N/A   Clear
10:15 AM 33.8 °F 21.9 °F 8.8 °F 35% 29.91 in 5.0 mi North 21.9 mph 34.5 mph N/A Snow Light Snow
10:35 AM 34.7 °F 23.4 °F 8.4 °F 33% 29.91 in 7.0 mi North 20.7 mph 33.4 mph N/A Snow Light Snow
10:55 AM 35.6 °F 26.2 °F 8.1 °F 32% 29.91 in 10.0 mi NNW 15.0 mph 27.6 mph N/A   Scattered Clouds
11:15 AM 35.6 °F 23.4 °F 7.2 °F 31% 29.91 in 10.0 mi North 25.3 mph 33.4 mph N/A   Clear
11:35 AM 36.5 °F 24.7 °F 7.9 °F 30% 29.91 in 10.0 mi NNW 25.3 mph 33.4 mph N/A   Clear
11:55 AM 37.4 °F 26.4 °F 9.0 °F 31% 29.91 in 10.0 mi NNW 23.0 mph 32.2 mph N/A   Clear
12:15 PM 37.0 °F 26.7 °F 7.5 °F 29% 29.91 in 10.0 mi NNW 19.6 mph 36.8 mph N/A   Clear
12:35 PM 37.6 °F 29.1 °F 8.1 °F 29% 29.90 in 10.0 mi NNW 13.8 mph 28.8 mph N/A   Clear
12:55 PM 37.4 °F 27.5 °F 7.2 °F 29% 29.90 in 10.0 mi NNW 18.4 mph 31.1 mph N/A   Clear
1:15 PM 37.9 °F 26.6 °F 6.8 °F 27% 29.91 in 10.0 mi NW 25.3 mph 34.5 mph N/A   Clear
1:35 PM 37.9 °F 27.6 °F 6.4 °F 27% 29.91 in 10.0 mi NNW 20.7 mph 34.5 mph N/A   Clear
1:55 PM 36.9 °F 24.2 °F 6.4 °F 28% 29.91 in 10.0 mi NW 29.9 mph 36.8 mph N/A   Clear
2:15 PM 37.2 °F 26.1 °F 4.6 °F 26% 29.92 in 10.0 mi NNW 23.0 mph 35.7 mph N/A   Clear
2:35 PM 37.0 °F 26.2 °F 5.5 °F 27% 29.92 in 10.0 mi NNW 21.9 mph 35.7 mph N/A   Clear
2:55 PM 36.9 °F 25.9 °F 6.3 °F 28% 29.93 in 10.0 mi NW 21.9 mph 35.7 mph N/A   Clear
3:15 PM 36.7 °F 26.0 °F 6.4 °F 28% 29.94 in 10.0 mi NW 20.7 mph 40.3 mph N/A   Clear
3:35 PM 36.5 °F 26.3 °F 5.5 °F 27% 29.95 in 10.0 mi NNW 18.4 mph 32.2 mph N/A   Clear
3:55 PM 36.3 °F 24.4 °F 5.9 °F 28% 29.96 in 10.0 mi NW 25.3 mph 38.0 mph N/A   Clear
4:15 PM 36.5 °F 24.2 °F 6.1 °F 28% 29.96 in 10.0 mi NW 27.6 mph 38.0 mph N/A   Clear
4:35 PM 35.6 °F 24.0 °F 6.3 °F 29% 29.97 in 10.0 mi NW 23.0 mph 36.8 mph N/A   Clear
4:55 PM 36.0 °F 24.7 °F 4.8 °F 27% 29.98 in 10.0 mi NW 21.9 mph 39.1 mph N/A   Clear
5:15 PM 35.4 °F 23.7 °F 3.9 °F 27% 29.99 in 10.0 mi NW 23.0 mph 38.0 mph N/A   Clear
5:35 PM 35.6 °F 23.7 °F 3.7 °F 26% 30.00 in 10.0 mi NNW 24.2 mph 38.0 mph N/A   Clear
5:55 PM 34.0 °F 20.5 °F 4.1 °F 28% 30.01 in 10.0 mi NW 28.8 mph 43.7 mph N/A   Clear
6:15 PM 33.8 °F 20.3 °F 4.1 °F 29% 30.03 in 10.0 mi NW 28.8 mph 38.0 mph N/A   Clear
6:35 PM 32.9 °F 19.6 °F 3.0 °F 28% 30.06 in 10.0 mi NW 26.5 mph 35.7 mph N/A   Clear
6:55 PM 32.0 °F 18.9 °F 2.1 °F 28% 30.08 in 10.0 mi NNW 24.2 mph 33.4 mph N/A   Clear
7:15 PM 31.8 °F 20.2 °F 2.3 °F 29% 30.09 in 10.0 mi NW 18.4 mph 26.5 mph N/A   Clear
7:35 PM 31.1 °F 20.9 °F 3.0 °F 30% 30.11 in 10.0 mi NW 13.8 mph 18.4 mph N/A   Clear
7:55 PM 30.7 °F 19.6 °F 2.5 °F 30% 30.11 in 10.0 mi NW 16.1 mph 26.5 mph N/A   Clear
8:15 PM 30.6 °F 20.7 °F 2.3 °F 30% 30.12 in 10.0 mi NNW 12.7 mph 21.9 mph N/A   Clear
8:35 PM 30.2 °F 18.1 °F 1.9 °F 30% 30.14 in 10.0 mi NNW 18.4 mph 29.9 mph N/A   Clear
8:55 PM 29.8 °F 17.7 °F 2.3 °F 31% 30.15 in 10.0 mi NNW 18.4 mph 25.3 mph N/A   Clear
9:15 PM 29.3 °F 17.7 °F 3.2 °F 33% 30.17 in 10.0 mi NW 16.1 mph 25.3 mph N/A   Clear
9:35 PM 29.1 °F 18.4 °F 3.7 °F 34% 30.18 in 10.0 mi NNW 13.8 mph 31.1 mph N/A   Clear
9:55 PM 28.4 °F 14.7 °F 4.1 °F 36% 30.19 in 10.0 mi NW 21.9 mph 31.1 mph N/A   Clear
10:15 PM 28.0 °F 16.1 °F 4.1 °F 36% 30.22 in 10.0 mi NW 16.1 mph 26.5 mph N/A   Clear
10:35 PM 27.5 °F 15.0 °F 4.1 °F 37% 30.23 in 10.0 mi NW 17.3 mph 25.3 mph N/A   Clear
10:55 PM 27.3 °F 17.7 °F 4.3 °F 37% 30.24 in 10.0 mi NW 10.4 mph 18.4 mph N/A   Clear
11:15 PM 27.1 °F 13.4 °F 4.1 °F 37% 30.24 in 10.0 mi NNW 20.7 mph 29.9 mph N/A   Clear
11:35 PM 27.0 °F 15.6 °F 4.6 °F 39% 30.25 in 10.0 mi NW 13.8 mph 24.2 mph N/A   Clear
11:55 PM 26.6 °F 16.8 °F 4.8 °F 40% 30.27 in 10.0 mi NW 10.4 mph 20.7 mph N/A   Clear